This is the latest recevied weather packets stored in our database for station/object SP2NBH-2. If no packets are shown the sender has not sent any weather packets the latest 10 day(s).
| Time | Temp. | Humidity | Pressure | Rain* | Wind** | Luminosity | Snow |
|---|---|---|---|---|---|---|---|
| 1777609387 | 10° C | 75% | 1028.6 hPa | - | - | - | - |
| 1777608487 | 7.22° C | 73% | 1028.5 hPa | - | - | - | - |
| 1777607587 | 6.11° C | 78% | 1028.4 hPa | - | - | - | - |
| 1777606720 | 4.44° C | 75% | 1028.6 hPa | - | - | - | - |
| 1777606687 | 4.44° C | 75% | 1028.6 hPa | - | - | - | - |
| 1777605787 | 4.44° C | 75% | 1028.6 hPa | - | - | - | - |
| 1777604887 | 4.44° C | 75% | 1028.6 hPa | - | - | - | - |
| 1777603987 | 5° C | 72% | 1028.6 hPa | - | - | - | - |
| 1777603087 | 5° C | 71% | 1028.7 hPa | - | - | - | - |
| 1777602186 | 5° C | 70% | 1028.5 hPa | - | - | - | - |
| 1777601286 | 5.56° C | 71% | 1028.4 hPa | - | - | - | - |
| 1777600386 | 5° C | 70% | 1028.5 hPa | - | - | - | - |
| 1777599487 | 5.56° C | 70% | 1028.4 hPa | - | - | - | - |
| 1777598586 | 5.56° C | 70% | 1028.5 hPa | - | - | - | - |
| 1777597719 | 5.56° C | 69% | 1028.5 hPa | - | - | - | - |
| 1777597686 | 5.56° C | 69% | 1028.5 hPa | - | - | - | - |
| 1777596819 | 6.11° C | 69% | 1028.3 hPa | - | - | - | - |
| 1777596786 | 6.11° C | 69% | 1028.3 hPa | - | - | - | - |
| 1777595886 | 6.11° C | 70% | 1028.4 hPa | - | - | - | - |
| 1777594986 | 6.11° C | 69% | 1028.4 hPa | - | - | - | - |
| 1777594118 | 5.56° C | 68% | 1028.5 hPa | - | - | - | - |
| 1777594086 | 5.56° C | 68% | 1028.5 hPa | - | - | - | - |
| 1777593218 | 6.11° C | 68% | 1028.5 hPa | - | - | - | - |
| 1777593186 | 6.11° C | 68% | 1028.5 hPa | - | - | - | - |
| 1777591475 | 5.56° C | 67% | 1028.5 hPa | - | - | - | - |
* Rain since midnight (hover to see other rain measurements)
** Current wind speed in m/s (hover to see current wind gust speed)